User: anonymous   Login
Location: Unspecified
(0.0000°N, 0.0000°E)
Time: 17:05:39
(UTC+02:00)
Language:

Landsat 4 - Orbit

View from above orbital plane
View from above orbital plane
View from above satellite
View from above satellite

Ground track
Ground track

The orbit data is extracted from the following two-line orbital elements,

1 13367U 82072A   16239.90274512  .00000966  00000-0  55436-4 0  9998
2 13367  98.2120  12.2382 0014699 119.1893 354.5489 15.15228996840450
Epoch (UTC): 26 August 2016 21:39:57
Eccentricity: 0.0014699
inclination: 98.2120°
perigee height: 510 km
apogee height: 530 km
right ascension of ascending node: 12.2382°
argument of perigee: 119.1893°
revolutions per day: 15.15228996
mean anomaly at epoch: 354.5489°
orbit number at epoch: 84045

The dashed part of the orbit path shows where the satellite is in the earth's shadow,  

DLR